Precipitable_Water
1.20 1.22 1.23 1.24 1.24 1.25 1.30 1.33 1.35 1.34 1.35 1.40 1.33 1.33 1.36 1.45 1.50 1.52 1.52 1.52 1.53 1.54 1.58 1.62 1.63 1.64 1.67 1.68 1.70 1.70 1.72 1.69 1.72 1.72 1.64 1.65 1.62 1.54 1.47 1.42 1.45 1.42
1.18 1.18 1.20 1.24 1.26 1.27 1.27 1.32 1.32 1.29 1.30 1.33 1.35 1.34 1.36 1.40 1.44 1.43 1.43 1.45 1.45 1.45 1.49 1.51 1.53 1.59 1.62 1.64 1.65 1.64 1.66 1.67 1.62 1.72 1.63 1.60 1.59 1.59 1.49 1.45 1.41 1.44
1.17 1.16 1.15 1.14 1.17 1.19 1.19 1.24 1.28 1.26 1.23 1.27 1.29 1.32 1.32 1.32 1.34 1.34 1.35 1.34 1.37 1.39 1.40 1.42 1.46 1.49 1.56 1.60 1.64 1.65 1.62 1.60 1.58 1.69 1.65 1.57 1.60 1.60 1.54 1.48 1.47 1.41
1.18 1.14 1.12 1.11 1.14 1.18 1.21 1.20 1.19 1.21 1.21 1.18 1.19 1.24 1.24 1.27 1.28 1.29 1.25 1.26 1.31 1.34 1.39 1.40 1.40 1.45 1.49 1.54 1.57 1.57 1.61 1.61 1.62 1.65 1.62 1.58 1.57 1.59 1.55 1.53 1.50 1.49
1.23 1.17 1.13 1.12 1.13 1.17 1.22 1.16 1.13 1.14 1.12 1.13 1.16 1.20 1.22 1.21 1.23 1.20 1.22 1.23 1.24 1.27 1.31 1.34 1.37 1.38 1.43 1.46 1.51 1.49 1.53 1.52 1.56 1.57 1.54 1.53 1.57 1.54 1.55 1.55 1.50 1.43
1.28 1.24 1.19 1.13 1.11 1.12 1.13 1.11 1.09 1.09 1.10 1.08 1.09 1.14 1.15 1.17 1.13 1.12 1.16 1.18 1.20 1.18 1.24 1.27 1.30 1.31 1.35 1.38 1.40 1.41 1.45 1.45 1.52 1.51 1.47 1.46 1.50 1.59 1.58 1.56 1.49 1.43
1.25 1.25 1.21 1.18 1.12 1.10 1.09 1.08 1.09 1.08 1.08 1.08 1.11 1.07 1.10 1.10 1.08 1.07 1.10 1.12 1.15 1.18 1.16 1.22 1.24 1.25 1.28 1.31 1.29 1.29 1.31 1.35 1.44 1.48 1.44 1.42 1.43 1.48 1.57 1.57 1.50 1.46
1.29 1.29 1.27 1.24 1.14 1.10 1.05 1.04 1.04 1.05 1.05 1.08 1.05 1.07 1.05 1.03 1.04 1.05 1.05 1.06 1.07 1.10 1.14 1.17 1.21 1.18 1.21 1.23 1.24 1.24 1.26 1.31 1.29 1.29 1.33 1.34 1.39 1.40 1.44 1.49 1.50 1.44
1.37 1.34 1.31 1.25 1.20 1.15 1.07 1.02 1.01 1.01 1.05 1.04 1.01 1.04 1.06 1.01 1.00 1.00 1.03 1.03 1.02 1.06 1.10 1.10 1.13 1.15 1.14 1.17 1.20 1.21 1.20 1.22 1.27 1.29 1.27 1.27 1.30 1.33 1.37 1.43 1.42 1.41
1.44 1.39 1.35 1.31 1.23 1.19 1.12 1.08 1.03 1.01 1.02 1.00 1.01 1.02 1.03 1.02 0.98 0.99 1.01 1.01 0.98 1.00 1.03 1.04 1.07 1.07 1.09 1.11 1.13 1.15 1.16 1.15 1.16 1.20 1.22 1.24 1.24 1.29 1.37 1.40 1.39 1.40
1.50 1.46 1.39 1.34 1.28 1.24 1.17 1.16 1.11 1.06 1.04 0.97 0.97 0.97 1.00 1.02 1.00 0.97 0.97 0.99 0.93 0.93 0.95 0.97 0.99 1.02 1.02 1.04 1.10 1.14 1.13 1.12 1.15 1.17 1.17 1.16 1.17 1.20 1.25 1.31 1.36 1.36
1.54 1.51 1.44 1.39 1.35 1.31 1.26 1.23 1.20 1.15 1.09 1.03 0.97 0.93 0.94 0.96 0.99 0.97 0.93 0.92 0.91 0.89 0.90 0.91 0.93 0.97 1.00 1.00 1.02 1.08 1.11 1.10 1.11 1.13 1.14 1.16 1.16 1.16 1.17 1.21 1.22 1.29
1.54 1.51 1.49 1.47 1.45 1.41 1.38 1.34 1.28 1.23 1.17 1.11 1.06 0.96 0.92 0.90 0.93 0.96 0.96 0.91 0.90 0.88 0.87 0.89 0.89 0.90 0.93 0.95 0.95 0.98 1.04 1.08 1.07 1.07 1.10 1.11 1.12 1.12 1.14 1.18 1.22 1.23
1.55 1.55 1.54 1.53 1.52 1.51 1.48 1.42 1.37 1.32 1.27 1.23 1.21 1.12 1.01 0.93 0.90 0.92 0.96 0.94 0.91 0.90 0.88 0.90 0.91 0.91 0.92 0.92 0.92 0.92 0.93 0.97 1.00 0.99 1.00 1.05 1.08 1.10 1.10 1.11 1.15 1.20
1.63 1.61 1.59 1.57 1.56 1.55 1.52 1.47 1.43 1.40 1.36 1.33 1.29 1.24 1.20 1.14 1.08 1.02 1.00 0.99 0.97 0.94 0.92 0.92 0.91 0.92 0.94 0.94 0.90 0.90 0.90 0.91 0.95 0.97 0.95 0.92 0.95 1.01 1.07 1.09 1.08 1.10
1.70 1.68 1.63 1.61 1.58 1.54 1.53 1.51 1.49 1.46 1.43 1.39 1.35 1.32 1.30 1.28 1.24 1.20 1.15 1.10 1.09 1.08 1.04 1.00 0.95 0.94 0.95 0.91 0.89 0.90 0.91 0.88 0.92 0.96 0.96 0.95 0.94 0.94 0.94 0.99 1.04 1.09
1.72 1.70 1.68 1.64 1.61 1.59 1.58 1.56 1.53 1.52 1.48 1.45 1.42 1.40 1.37 1.36 1.33 1.27 1.23 1.20 1.17 1.16 1.15 1.12 1.08 1.04 0.99 0.93 0.89 0.86 0.89 0.95 0.96 0.97 0.99 0.97 0.94 0.91 0.89 0.90 0.98 1.06
1.71 1.71 1.68 1.65 1.64 1.61 1.61 1.61 1.60 1.57 1.52 1.50 1.47 1.44 1.44 1.42 1.37 1.33 1.29 1.27 1.24 1.21 1.19 1.19 1.18 1.15 1.08 1.00 0.95 0.91 0.90 0.93 0.99 1.02 1.03 1.02 0.99 0.94 0.92 0.94 0.95 0.98
1.76 1.71 1.68 1.66 1.64 1.64 1.65 1.67 1.65 1.60 1.56 1.52 1.48 1.49 1.50 1.46 1.41 1.37 1.34 1.32 1.28 1.23 1.19 1.20 1.20 1.20 1.14 1.08 1.03 0.99 0.97 0.96 0.96 1.00 1.03 1.04 1.04 1.02 0.99 0.97 0.99 1.00
1.84 1.74 1.68 1.66 1.66 1.66 1.67 1.67 1.65 1.62 1.59 1.58 1.57 1.58 1.54 1.48 1.45 1.41 1.38 1.35 1.31 1.26 1.22 1.21 1.20 1.21 1.16 1.11 1.08 1.06 1.04 1.03 1.02 1.01 1.00 1.01 1.05 1.06 1.06 1.05 1.03 1.01
1.93 1.83 1.72 1.69 1.69 1.67 1.67 1.66 1.64 1.63 1.63 1.61 1.59 1.55 1.52 1.46 1.43 1.41 1.41 1.39 1.36 1.34 1.29 1.24 1.22 1.22 1.19 1.14 1.11 1.10 1.10 1.10 1.10 1.08 1.04 1.02 1.02 1.06 1.07 1.08 1.09 1.08
1.99 1.93 1.85 1.76 1.73 1.71 1.67 1.65 1.67 1.66 1.61 1.63 1.60 1.58 1.57 1.55 1.52 1.47 1.41 1.38 1.37 1.36 1.34 1.29 1.29 1.28 1.26 1.22 1.19 1.18 1.20 1.21 1.18 1.13 1.08 1.04 1.03 1.04 1.07 1.09 1.09 1.09
2.09 2.00 1.93 1.89 1.82 1.75 1.69 1.66 1.65 1.66 1.68 1.69 1.63 1.58 1.53 1.51 1.49 1.48 1.48 1.43 1.40 1.39 1.35 1.30 1.28 1.31 1.28 1.26 1.25 1.26 1.28 1.27 1.24 1.20 1.16 1.11 1.07 1.07 1.08 1.09 1.10 1.11
2.19 2.13 2.01 1.96 1.92 1.83 1.75 1.72 1.71 1.72 1.70 1.72 1.63 1.58 1.55 1.52 1.52 1.52 1.53 1.51 1.46 1.42 1.41 1.36 1.33 1.36 1.34 1.30 1.28 1.29 1.29 1.28 1.28 1.24 1.19 1.17 1.14 1.14 1.13 1.11 1.12 1.10
2.16 2.17 2.17 2.07 1.98 1.93 1.91 1.82 1.76 1.73 1.74 1.76 1.70 1.66 1.61 1.60 1.57 1.52 1.52 1.54 1.53 1.50 1.49 1.43 1.40 1.42 1.41 1.36 1.34 1.33 1.33 1.33 1.31 1.26 1.19 1.17 1.15 1.12 1.14 1.13 1.12 1.12
2.11 2.12 2.13 2.15 2.15 2.10 2.09 2.02 1.96 1.88 1.81 1.78 1.75 1.72 1.66 1.62 1.58 1.53 1.49 1.50 1.55 1.57 1.55 1.52 1.46 1.46 1.48 1.42 1.39 1.38 1.37 1.38 1.37 1.27 1.18 1.15 1.16 1.12 1.09 1.09 1.10 1.11
Wind_Speed
20 19 18 18 17 16 16 15 15 14 14 13 12 11 11 10 10 9 9 8 8 8 7 7 7 7 6 6 6 6 5 5 5 6 6 6 6 7 7 7 7 6
21 20 19 19 18 18 17 16 16 15 14 14 13 12 12 11 10 10 9 9 8 8 8 8 7 7 7 6 6 6 5 5 6 6 6 6 6 6 7 7 7 7
21 21 21 20 19 19 18 18 17 16 15 15 14 14 13 12 11 11 10 9 9 9 8 8 8 7 7 7 6 6 6 6 6 6 6 6 6 6 6 7 7 7
22 22 22 21 20 20 19 19 18 17 16 16 15 15 14 13 12 11 11 10 10 9 9 9 8 8 8 7 7 7 6 6 6 6 6 6 6 6 6 7 7 7
22 22 22 21 21 21 20 20 19 18 18 17 16 16 15 14 13 12 11 11 11 10 9 9 9 9 8 8 8 7 7 7 7 7 7 6 6 6 6 7 7 7
23 22 22 22 22 22 21 21 20 20 19 18 17 17 16 15 14 13 13 12 11 11 10 10 10 9 9 9 9 8 8 8 7 7 7 7 7 7 7 7 7 7
23 23 23 22 22 22 22 22 21 21 20 19 19 18 17 16 15 15 14 13 12 12 11 11 11 10 10 9 9 9 9 8 8 8 8 7 7 7 7 7 7 7
24 23 23 23 23 23 23 23 22 22 21 21 20 19 19 18 17 16 15 14 14 13 12 12 12 11 11 10 10 10 9 9 9 9 9 8 8 8 8 8 8 8
24 24 24 24 24 23 23 23 23 23 22 22 21 20 20 19 18 18 17 16 15 14 14 13 13 12 12 12 11 11 10 10 9 9 9 9 9 9 9 8 8 8
25 25 25 25 24 24 24 24 24 23 23 23 23 22 21 20 20 19 18 17 17 16 15 15 14 14 13 13 13 12 11 11 10 10 10 10 10 9 9 9 9 9
26 26 26 26 25 25 25 25 24 24 24 24 24 23 23 22 21 21 20 19 18 18 17 17 16 15 15 15 14 14 13 12 12 11 11 11 11 11 10 10 10 10
28 27 27 27 26 26 26 25 25 25 25 24 25 25 24 23 23 22 21 21 20 19 19 18 18 17 17 17 16 15 15 14 13 13 12 12 12 12 12 11 11 11
28 28 28 28 27 27 26 26 26 26 25 25 25 25 25 25 24 24 23 22 22 21 20 20 19 19 19 18 18 17 16 16 15 14 14 13 13 13 13 13 12 12
29 28 28 28 28 28 27 27 26 26 26 26 25 25 26 26 26 25 24 24 23 22 22 21 21 20 20 20 20 19 18 17 17 16 15 15 14 14 14 14 13 13
29 29 29 29 29 28 28 28 27 27 27 26 26 26 26 26 26 26 25 25 24 24 23 23 22 22 21 21 21 20 20 19 18 18 17 17 16 16 15 15 15 14
29 29 30 30 30 29 29 29 28 28 28 27 27 27 26 26 26 26 26 25 25 25 24 24 24 23 23 23 22 22 21 21 20 20 19 18 18 17 17 16 16 16
29 30 30 30 30 30 29 29 29 29 28 28 28 27 27 27 27 27 26 26 26 26 25 25 25 25 25 25 24 24 23 22 21 21 20 20 19 19 18 18 18 17
29 30 30 31 31 31 30 30 30 30 29 29 29 28 28 28 27 27 27 27 27 26 26 26 26 26 26 26 26 25 25 24 23 22 22 21 21 20 20 19 19 19
29 30 30 31 31 31 31 31 31 31 30 30 30 29 29 29 28 28 28 28 27 27 27 27 27 26 27 27 26 26 26 26 25 24 23 23 22 22 21 21 20 20
29 30 31 31 31 31 31 32 32 32 31 31 30 30 30 30 29 29 29 28 28 28 28 28 27 27 27 27 27 27 27 27 26 26 25 24 24 23 22 22 22 21
30 30 30 31 31 31 32 32 32 32 32 32 31 31 31 30 30 30 29 29 29 29 28 28 28 28 28 28 28 28 28 27 27 27 26 26 25 25 24 24 23 23
30 30 31 31 31 32 32 32 32 32 32 32 32 32 31 31 30 30 30 30 29 29 29 29 28 28 28 28 29 28 28 27 28 28 27 27 27 26 26 26 25 25
29 30 31 31 31 32 33 33 32 32 32 32 32 32 32 31 31 30 30 30 30 30 29 29 29 28 28 29 29 28 28 28 28 28 28 28 28 28 28 27 27 27
28 29 31 32 32 32 33 33 33 33 33 33 33 33 32 32 31 31 30 30 30 30 30 29 29 29 29 29 29 29 28 28 28 28 28 29 29 29 29 29 29 29
29 29 30 31 32 33 33 33 34 34 33 33 33 33 33 32 32 31 31 30 30 30 30 30 30 29 29 29 30 29 29 29 28 28 28 29 29 29 29 29 29 30
30 31 31 31 32 33 34 33 33 33 34 34 34 33 33 33 32 32 31 30 30 30 29 30 30 30 30 30 30 30 30 30 29 29 29 29 29 29 29 29 29 29
Wind_Direction
206 206 205 205 204 203 203 202 201 201 201 200 199 199 198 196 193 193 194 194 194 196 196 194 192 191 189 188 187 187 187 188 191 195 198 202 204 205 206 203 201 200
207 208 207 206 206 205 205 205 204 204 204 204 203 203 203 201 199 199 199 198 199 200 200 201 200 199 198 196 195 194 196 195 195 199 202 205 206 206 208 208 207 207
209 209 208 208 208 208 207 208 207 207 208 208 208 208 207 206 205 204 204 203 204 204 204 205 205 205 205 204 203 203 204 203 203 205 206 209 210 209 208 208 210 211
210 211 211 210 210 210 210 210 210 210 211 211 212 212 211 210 209 208 207 207 208 208 208 209 210 211 211 210 210 211 211 211 211 211 210 210 212 212 211 211 212 213
211 212 213 212 212 212 213 213 213 212 213 213 214 214 213 212 211 211 210 210 211 212 213 213 214 215 215 215 215 215 216 216 216 215 214 213 213 214 215 216 216 215
213 213 214 214 213 213 214 215 215 215 215 215 215 216 215 214 214 214 214 214 214 216 217 217 217 218 218 219 220 220 220 220 219 218 218 216 215 216 216 217 218 218
214 214 214 215 214 215 215 216 216 217 217 217 217 217 217 217 217 217 217 218 219 219 220 221 221 221 221 221 222 222 223 223 222 221 221 220 220 220 220 221 221 222
216 216 216 216 215 216 217 217 218 218 218 219 219 218 218 219 219 220 221 222 223 224 224 224 224 224 224 224 223 224 225 227 226 225 224 223 225 225 225 225 225 226
217 218 218 217 217 218 218 219 219 219 220 220 221 221 221 221 222 222 223 224 226 227 227 227 227 226 227 226 225 226 227 229 231 230 228 227 228 229 229 228 229 229
219 219 220 219 219 220 220 220 221 221 221 221 223 224 224 224 225 225 225 225 227 229 230 230 230 229 229 229 228 229 230 232 234 235 234 233 232 232 232 231 231 232
220 221 221 221 222 222 222 222 222 222 222 223 224 225 226 227 228 228 228 228 229 231 231 232 233 232 232 231 231 232 233 234 236 238 238 238 238 237 236 235 235 235
222 222 223 223 223 224 224 224 224 224 224 225 225 226 228 229 230 231 231 231 232 233 234 235 235 235 234 234 234 235 236 236 237 239 240 241 241 241 241 240 240 239
224 224 224 225 225 225 225 225 226 225 225 226 227 227 229 230 231 233 233 234 234 235 236 237 237 237 236 236 236 237 237 238 239 240 241 242 243 243 243 243 243 243
225 225 226 226 226 227 227 227 227 227 228 228 229 229 230 231 232 233 235 236 236 237 237 238 238 238 237 237 237 238 239 240 240 241 242 243 243 244 244 244 244 244
226 227 227 227 228 228 228 228 229 229 230 230 231 231 232 233 233 234 235 237 238 238 239 239 239 239 238 237 238 238 240 241 242 242 243 243 244 244 245 246 246 246
228 228 229 229 229 229 230 230 230 230 231 232 232 233 234 235 235 236 237 238 239 240 240 240 240 241 239 238 238 239 240 242 243 243 243 244 244 245 246 247 247 248
230 229 229 230 230 230 231 231 232 232 232 233 233 234 235 236 236 237 238 239 240 241 241 242 242 242 240 239 239 240 240 242 243 244 244 244 244 245 246 247 248 249
232 231 231 231 231 231 232 232 233 234 234 234 235 235 236 236 237 238 239 240 241 241 242 243 243 242 240 239 239 240 240 241 243 244 244 244 244 245 246 246 247 248
233 232 232 232 232 232 233 233 234 234 235 236 236 237 237 238 238 238 239 239 241 242 242 243 244 243 241 241 240 240 240 241 242 244 244 245 245 245 246 246 247 248
233 233 233 233 233 233 233 234 235 235 236 237 238 239 239 239 239 239 239 239 240 241 242 243 244 243 242 241 241 241 240 241 242 243 244 245 246 246 247 247 248 249
233 234 234 234 235 234 234 235 235 236 237 237 238 240 240 241 241 240 240 240 240 240 241 242 243 242 241 241 241 241 241 242 243 243 244 246 246 247 248 249 250 251
233 234 234 235 235 236 236 236 236 236 237 238 239 240 240 241 242 242 241 241 241 241 242 242 243 242 241 241 241 241 242 242 243 243 244 246 247 248 249 250 251 252
235 234 234 235 236 236 237 237 237 237 238 238 239 240 240 240 241 242 242 242 242 242 242 242 243 242 241 241 241 241 242 243 244 244 245 246 247 248 249 250 251 252
237 236 235 235 235 236 237 238 238 238 239 239 240 240 240 240 240 241 242 242 242 242 242 242 243 242 240 240 240 240 242 243 245 245 246 247 247 248 249 250 251 252
238 238 237 236 236 236 236 237 238 239 239 239 240 240 240 240 240 239 240 241 241 242 242 242 243 243 241 240 240 240 242 244 245 246 247 248 248 249 249 250 251 252
239 238 237 238 238 237 236 236 236 236 237 238 239 239 240 240 239 239 239 239 240 240 241 241 243 244 242 241 241 241 242 244 245 246 247 248 248 249 250 250 251 252